EW2749 Weather Reports


Display with metric or nautical units.
time (UTC)temp
F
wind
direction
speed
MPH
gust
MPH
rain 1hr
in
rain 24hr
in
rain mn
in
humidity
%
barometer
mb
20260507201620 51 338 10.0 16.0 0.00 0.24 0.02 48 1006.3
20260507201139 51 315 11.0 17.0 0.00 0.24 0.02 47 1006.2
20260507200719 51 338 9.0 16.0 0.00 0.24 0.02 48 1006.2
20260507200015 51 315 11.0 16.0 0.00 0.24 0.02 46 1006.4
20260507195030 51 315 8.0 13.0 0.00 0.24 0.02 47 1006.2
20260507194522 50 338 9.0 21.0 0.00 0.24 0.02 48 1006.4
20260507194110 50 315 10.0 15.0 0.00 0.24 0.02 48 1006.4
20260507193608 50 338 8.0 15.0 0.00 0.24 0.02 47 1006.2
20260507193139 50 338 9.0 19.0 0.00 0.24 0.02 46 1006.3
20260507192641 50 315 10.0 17.0 0.00 0.24 0.02 49 1006.4
20260507192157 50 338 8.0 13.0 0.00 0.24 0.02 48 1006.3
20260507191736 50 338 7.0 13.0 0.00 0.25 0.02 49 1006.3
20260507191010 50 315 9.0 14.0 0.00 0.25 0.02 51 1006.4
20260507190530 50 338 6.0 15.0 0.00 0.25 0.02 49 1006.6
20260507190043 50 293 7.0 13.0 0.00 0.25 0.02 47 1006.5
20260507185603 50 225 6.0 11.0 0.00 0.26 0.02 52 1006.5
20260507185129 50 315 9.0 16.0 0.00 0.26 0.02 52 1006.5
20260507184640 50 0 6.0 12.0 0.00 0.27 0.02 49 1006.6
20260507184200 50 315 9.0 16.0 0.00 0.27 0.02 51 1006.6
20260507183715 50 225 7.0 12.0 0.00 0.28 0.02 51 1006.7
20260507183018 50 270 9.0 17.0 0.00 0.28 0.02 52 1006.7
20260507182530 50 270 8.0 17.0 0.00 0.29 0.02 48 1006.6
20260507182052 50 270 11.0 18.0 0.00 0.30 0.02 48 1006.6
20260507181652 50 270 11.0 20.0 0.00 0.32 0.02 52 1006.6
20260507180734 50 270 12.0 20.0 0.00 0.32 0.02 50 1006.8
20260507180130 49 315 9.0 22.0 0.00 0.33 0.02 48 1006.7
20260507175652 49 315 10.0 16.0 0.00 0.34 0.02 53 1006.6
20260507175211 50 315 12.0 20.0 0.00 0.34 0.02 49 1006.7
20260507174503 50 293 8.0 15.0 0.00 0.35 0.02 52 1006.7
20260507174046 50 248 10.0 25.0 0.00 0.36 0.02 58 1006.8
20260507173545 50 315 10.0 20.0 0.00 0.36 0.02 53 1006.7
20260507173105 50 270 11.0 17.0 0.00 0.37 0.02 55 1006.8
20260507172617 50 270 9.0 17.0 0.00 0.38 0.02 51 1006.6
20260507172140 49 315 10.0 19.0 0.00 0.38 0.02 52 1006.7
20260507171658 50 315 11.0 21.0 0.00 0.39 0.02 54 1006.8
20260507171215 50 315 12.0 24.0 0.00 0.39 0.02 53 1006.9
20260507170515 49 315 9.0 13.0 0.00 0.40 0.02 55 1006.9
20260507170051 49 248 8.0 16.0 0.00 0.40 0.02 60 1006.9
20260507165611 49 315 9.0 18.0 0.00 0.41 0.02 59 1007.0
20260507165112 48 315 6.0 12.0 0.00 0.41 0.02 57 1007.0
20260507164630 48 225 10.0 18.0 0.00 0.42 0.02 59 1007.2
20260507164145 48 225 11.0 17.0 0.00 0.42 0.02 61 1007.2
20260507163739 48 225 11.0 19.0 0.00 0.43 0.02 59 1007.3
20260507163019 48 225 10.0 18.0 0.00 0.43 0.02 59 1007.2
20260507162712 48 225 10.0 17.0 0.00 0.44 0.02 64 1007.3
20260507162011 48 270 7.0 12.0 0.00 0.44 0.02 61 1007.4
20260507161527 48 293 8.0 13.0 0.00 0.44 0.02 63 1007.2
20260507161039 47 270 7.0 14.0 0.00 0.45 0.02 66 1007.3
20260507160552 47 293 6.0 10.0 0.00 0.45 0.02 74 1007.5
20260507160115 47 293 8.0 14.0 0.01 0.45 0.02 72 1007.7
20260507155630 47 293 8.0 12.0 0.01 0.46 0.02 73 1007.7
20260507155152 47 225 9.0 15.0 0.01 0.46 0.02 70 1007.7
20260507154711 47 225 8.0 14.0 0.01 0.47 0.02 71 1007.7
20260507154010 47 338 7.0 12.0 0.01 0.47 0.02 70 1007.6
20260507153531 47 270 6.0 14.0 0.01 0.48 0.02 79 1007.8
20260507153047 46 225 7.0 12.0 0.01 0.49 0.02 78 1007.6
20260507152606 46 225 7.0 13.0 0.01 0.49 0.02 80 1007.6
20260507152125 46 225 5.0 10.0 0.01 0.50 0.02 83 1007.7
20260507151640 45 225 8.0 19.0 0.01 0.50 0.02 81 1007.8
20260507151158 45 203 7.0 19.0 0.01 0.51 0.02 81 1007.8
20260507150740 44 203 4.0 8.0 0.01 0.51 0.02 88 1007.6
20260507150035 44 225 5.0 11.0 0.00 0.51 0.01 87 1007.7
20260507145538 44 225 6.0 11.0 0.00 0.52 0.01 86 1007.9
20260507145053 43 225 4.0 10.0 0.00 0.52 0.01 87 1007.7
20260507144613 43 225 3.0 7.0 0.00 0.53 0.01 91 1007.7
20260507144128 43 180 2.0 5.0 0.00 0.53 0.01 90 1007.7
20260507143650 43 225 4.0 6.0 0.00 0.54 0.01 90 1007.9
20260507143209 42 225 4.0 7.0 0.00 0.54 0.01 90 1007.9
20260507142509 42 315 5.0 9.0 0.00 0.55 0.01 89 1007.9
20260507142021 43 293 7.0 12.0 0.00 0.55 0.01 91 1008.1
20260507141544 43 225 3.0 7.0 0.00 0.55 0.01 92 1007.8
20260507141056 43 225 3.0 6.0 0.00 0.55 0.01 93 1007.8
20260507140622 43 225 4.0 7.0 0.00 0.55 0.01 94 1007.9
20260507140138 43 225 4.0 6.0 0.00 0.56 0.01 93 1007.9
20260507135720 43 225 4.0 5.0 0.00 0.56 0.01 93 1007.9
20260507135210 43 225 3.0 5.0 0.00 0.56 0.01 94 1007.9
20260507134518 43 225 3.0 5.0 0.00 0.57 0.01 94 1007.8
20260507134028 43 225 3.0 5.0 0.00 0.57 0.01 94 1007.8
20260507133554 43 225 3.0 5.0 0.00 0.58 0.01 94 1007.8
20260507133112 43 225 3.0 4.0 0.00 0.59 0.01 94 1007.8
20260507132632 43 248 3.0 6.0 0.00 0.60 0.01 95 1007.8
20260507132150 43 248 4.0 6.0 0.00 0.60 0.01 93 1008.0
20260507131711 43 248 3.0 6.0 0.00 0.60 0.01 94 1008.0
20260507131008 43 203 3.0 5.0 0.00 0.60 0.01 94 1008.1
20260507130522 42 203 2.0 5.0 0.00 0.61 0.01 94 1008.1
20260507130034 42 225 3.0 6.0 0.00 0.61 0.01 94 1008.1
20260507125600 42 225 2.0 4.0 0.00 0.61 0.01 95 1008.0
20260507125118 42 225 2.0 4.0 0.00 0.62 0.01 95 1008.0
20260507124639 42 225 3.0 5.0 0.00 0.62 0.01 95 1008.1
20260507124152 42 225 3.0 5.0 0.00 0.62 0.01 96 1008.1
20260507123734 42 225 2.0 5.0 0.00 0.62 0.01 96 1008.1
20260507123017 42 225 2.0 3.0 0.00 0.62 0.01 97 1008.0
20260507122531 41 225 2.0 4.0 0.00 0.62 0.01 97 1008.0
20260507122054 41 225 1.0 2.0 0.00 0.62 0.01 98 1007.9
20260507121549 41 0.0 2.0 0.00 0.62 0.01 98 1008.0
20260507121050 41 225 1.0 3.0 0.00 0.62 0.01 99 1008.1
20260507120651 41 225 2.0 4.0 0.00 0.62 0.01 99 1008.0
20260507120124 41 225 2.0 4.0 0.00 0.62 0.01 99 1008.0
20260507115650 41 203 1.0 2.0 0.00 0.62 0.01 99 1007.9
20260507115210 41 0.0 0.0 0.00 0.62 0.01 99 1007.9
20260507114500 41 0.0 1.0 0.00 0.62 0.01 99 1007.9
20260507114026 41 0.0 0.0 0.00 0.62 0.01 99 1008.0
20260507113602 41 0.0 1.0 0.00 0.62 0.01 99 1008.0
20260507113059 41 0.0 2.0 0.00 0.62 0.01 99 1008.0
20260507112615 41 0.0 2.0 0.00 0.62 0.01 99 1007.8
20260507112140 41 0.0 1.0 0.00 0.62 0.01 99 1008.0
20260507111656 41 0.0 2.0 0.00 0.62 0.01 99 1007.9
20260507111324 41 0.0 1.0 0.00 0.62 0.01 99 1008.0
20260507110516 40 0.0 1.0 0.00 0.62 0.01 99 1007.9
20260507110037 40 0.0 1.0 0.00 0.62 0.01 99 1007.9
20260507105552 40 0.0 1.0 0.00 0.62 0.01 99 1008.0
20260507105112 40 0.0 2.0 0.00 0.62 0.01 99 1008.0
20260507104633 40 0.0 2.0 0.00 0.62 0.01 99 1007.9
20260507104153 40 0.0 1.0 0.00 0.62 0.01 99 1007.9
20260507103725 40 0.0 1.0 0.00 0.62 0.01 99 1007.8
20260507103227 40 0.0 1.0 0.00 0.62 0.01 99 1007.8
20260507102522 40 0.0 1.0 0.00 0.62 0.01 99 1007.8
20260507102040 40 0.0 2.0 0.00 0.62 0.01 99 1007.8
20260507101556 40 0.0 2.0 0.00 0.62 0.01 99 1007.7
20260507101115 40 225 1.0 3.0 0.00 0.62 0.01 99 1007.8
20260507100656 40 225 3.0 4.0 0.00 0.62 0.01 99 1007.9
20260507100159 40 225 2.0 4.0 0.00 0.62 0.01 99 1008.0
20260507095715 40 248 2.0 3.0 0.00 0.62 0.01 99 1007.8
20260507095009 39 248 1.0 3.0 0.00 0.62 0.01 99 1007.7
20260507094535 39 0.0 0.0 0.00 0.62 0.01 98 1007.5
20260507094048 39 0.0 0.0 0.00 0.62 0.01 98 1007.5
20260507093610 39 0.0 0.0 0.00 0.62 0.01 98 1007.5
20260507093126 39 0.0 0.0 0.00 0.62 0.01 98 1007.6
20260507092639 39 0.0 0.0 0.00 0.62 0.01 99 1007.4
20260507092103 39 0.0 0.0 0.00 0.62 0.01 98 1007.8
20260507091015 39 0.0 0.0 0.00 0.62 0.01 99 1007.7
20260507090535 39 0.0 0.0 0.00 0.62 0.01 98 1007.8
20260507090055 39 0.0 0.0 0.00 0.62 0.01 98 1007.8
20260507085616 39 0.0 0.0 0.00 0.62 0.01 98 1007.9
20260507085131 39 0.0 0.0 0.00 0.62 0.01 98 1008.0
20260507084705 39 0.0 0.0 0.00 0.62 0.01 98 1008.0
20260507084021 39 0.0 0.0 0.00 0.62 0.01 98 1008.0
20260507083020 39 0.0 0.0 0.00 0.62 0.01 98 1007.8
20260507082613 39 0.0 0.0 0.00 0.62 0.01 98 1007.6
20260507081624 39 0.0 0.0 0.00 0.62 0.01 98 1007.5
20260507081138 39 0.0 0.0 0.00 0.62 0.01 98 1007.5
20260507080700 39 0.0 0.0 0.00 0.62 0.01 98 1007.4
20260507080210 40 0.0 0.0 0.00 0.62 0.01 98 1007.5
20260507075515 40 0.0 0.0 0.00 0.62 0.01 98 1007.4
20260507075049 40 0.0 0.0 0.00 0.62 0.01 98 1007.5
20260507074550 40 0.0 0.0 0.00 0.62 0.01 98 1007.5
20260507074108 40 0.0 0.0 0.00 0.63 0.01 97 1007.5
20260507073631 40 0.0 0.0 0.00 0.64 0.01 97 1007.5
20260507073146 40 0.0 0.0 0.00 0.65 0.01 97 1007.4
20260507072723 40 0.0 0.0 0.00 0.65 0.01 97 1007.4
20260507072147 40 0.0 0.0 0.00 0.65 0.01 97 1007.4
20260507071705 40 0.0 0.0 0.00 0.65 0.01 97 1007.4
20260507071238 40 0.0 0.0 0.00 0.65 0.01 97 1007.4
20260507070518 40 0.0 0.0 0.00 0.65 0.01 96 1007.4
20260507070043 40 0.0 0.0 0.00 0.65 0.01 96 1007.3
20260507065557 40 0.0 0.0 0.00 0.65 0.01 96 1007.3
20260507065117 40 0.0 0.0 0.00 0.65 0.01 95 1007.3
20260507064635 41 0.0 0.0 0.00 0.65 0.01 95 1007.4
20260507064154 41 0.0 0.0 0.00 0.65 0.01 94 1007.3
20260507063714 42 0.0 1.0 0.00 0.66 0.01 95 1007.2
20260507063040 42 315 2.0 4.0 0.00 0.66 0.01 95 1007.8
20260507062536 42 315 4.0 5.0 0.00 0.67 0.01 96 1007.8
20260507062051 42 315 3.0 5.0 0.00 0.68 0.01 96 1007.8
20260507061634 42 315 3.0 4.0 0.00 0.68 0.01 96 1007.7
20260507061155 42 293 2.0 3.0 0.00 0.69 0.01 96 1007.7
20260507060718 42 0.0 2.0 0.00 0.71 0.01 95 1007.5
20260507060213 42 23 1.0 3.0 0.00 0.71 0.01 95 1007.2
20260507055512 42 23 1.0 2.0 0.00 0.72 0.01 94 1007.3
20260507055050 42 23 1.0 3.0 0.00 0.73 0.01 94 1007.5
20260507054542 43 0.0 2.0 0.00 0.73 0.01 94 1007.7
20260507054100 43 23 1.0 4.0 0.00 0.73 0.01 94 1007.8
20260507053622 43 0 3.0 6.0 0.00 0.73 0.01 94 1007.6
20260507053142 43 338 4.0 6.0 0.00 0.73 0.01 94 1007.9
20260507052659 43 338 4.0 6.0 0.00 0.73 0.01 94 1007.9
20260507052220 43 338 2.0 5.0 0.00 0.73 0.01 95 1007.8
20260507051516 43 0 2.0 4.0 0.01 0.73 0.01 95 1007.7
20260507051035 43 338 3.0 7.0 0.01 0.73 0.01 95 1007.7
20260507050555 43 338 4.0 8.0 0.01 0.73 0.01 96 1007.6
20260507050125 43 0 3.0 5.0 0.01 0.74 0.01 96 1007.7
20260507045153 43 45 1.0 3.0 0.01 0.76 0.01 96 1007.7
20260507044712 43 23 1.0 3.0 0.01 0.77 0.01 95 1007.6
20260507044007 43 23 1.0 5.0 0.02 0.77 0.01 95 1007.6
20260507043550 43 338 2.0 5.0 0.02 0.77 0.01 95 1007.6
20260507043049 43 0 2.0 5.0 0.02 0.77 0.01 96 1007.7
20260507042613 43 338 3.0 5.0 0.02 0.77 0.01 96 1007.8
20260507042127 43 338 2.0 4.0 0.02 0.78 0.01 96 1007.8
20260507041645 43 315 2.0 4.0 0.02 0.77 0.00 97 1008.0
20260507041121 43 315 2.0 5.0 0.02 0.77 0.00 97 1008.2
20260507040027 43 0.0 0.0 0.02 0.77 0.00 97 1007.9
20260507035542 43 0.0 0.0 0.03 0.77 0.77 97 1007.7
20260507035102 43 0.0 0.0 0.03 0.77 0.77 97 1007.7
20260507034619 43 0.0 1.0 0.03 0.77 0.77 97 1007.7
20260507034203 43 338 1.0 3.0 0.02 0.76 0.76 96 1007.8
20260507033538 43 315 2.0 4.0 0.03 0.77 0.76 97 1007.8
20260507032519 43 0.0 1.0 0.03 0.78 0.76 97 1007.8
20260507032036 43 0.0 1.0 0.04 0.78 0.76 96 1007.5
20260507031621 43 0.0 1.0 0.03 0.77 0.75 96 1007.6
20260507031026 43 0 1.0 2.0 0.03 0.77 0.75 96 1007.8
20260507030633 43 0 1.0 4.0 0.03 0.77 0.75 96 1008.2
20260507030213 44 0 2.0 5.0 0.04 0.77 0.75 95 1008.2
20260507025706 44 0 2.0 4.0 0.03 0.76 0.74 96 1008.3
20260507025008 44 338 2.0 3.0 0.03 0.76 0.74 96 1008.5
20260507024523 44 338 3.0 5.0 0.03 0.76 0.74 96 1008.4
20260507024048 44 338 3.0 5.0 0.04 0.76 0.74 95 1008.5
20260507023600 44 338 5.0 9.0 0.03 0.75 0.73 95 1008.5
20260507023117 44 338 5.0 9.0 0.03 0.75 0.73 95 1008.5
20260507022637 44 338 7.0 11.0 0.04 0.75 0.73 95 1008.5
20260507022038 44 338 5.0 9.0 0.03 0.74 0.72 96 1008.3
20260507021015 44 0.0 3.0 0.03 0.74 0.72 96 1008.2
20260507020533 44 0.0 2.0 0.04 0.74 0.72 96 1008.2
20260507020053 44 315 1.0 3.0 0.03 0.73 0.71 96 1008.2
20260507015605 44 293 1.0 3.0 0.03 0.73 0.71 95 1008.1
20260507015134 44 315 3.0 5.0 0.04 0.73 0.71 95 1008.1
20260507014649 44 315 4.0 6.0 0.04 0.73 0.71 95 1008.0
20260507014202 44 338 2.0 5.0 0.03 0.72 0.70 97 1007.8
20260507013722 44 0.0 2.0 0.03 0.72 0.70 97 1007.7
20260507013020 44 338 1.0 4.0 0.04 0.72 0.70 97 1007.8
20260507012538 44 338 1.0 4.0 0.03 0.71 0.69 96 1007.9
20260507012104 44 338 3.0 4.0 0.03 0.71 0.69 97 1007.9
20260507011614 44 338 2.0 5.0 0.03 0.71 0.69 97 1007.7
20260507011138 44 338 4.0 5.0 0.03 0.71 0.69 97 1007.7
20260507010658 44 338 3.0 5.0 0.03 0.70 0.68 98 1007.8
20260507010214 45 0.0 2.0 0.03 0.70 0.68 98 1007.5
20260507005515 45 0.0 2.0 0.03 0.70 0.68 98 1007.3
20260507005029 45 0.0 2.0 0.02 0.69 0.67 98 1007.3
20260507004548 45 0.0 2.0 0.02 0.69 0.67 98 1007.2
20260507004105 45 0.0 1.0 0.03 0.69 0.67 98 1007.2
20260507003630 45 0.0 1.0 0.03 0.69 0.67 98 1007.1
20260507003147 45 0.0 1.0 0.02 0.68 0.66 98 1007.2
20260507002705 45 0.0 1.0 0.02 0.68 0.66 98 1007.3
20260507002003 45 0.0 1.0 0.02 0.68 0.66 97 1007.2
20260507001520 45 0.0 1.0 0.02 0.68 0.66 97 1007.1
20260507001005 45 0.0 1.0 0.02 0.68 0.66 97 1007.1
20260507000521 45 0.0 1.0 0.02 0.67 0.65 97 1006.8
20260507000045 45 0.0 2.0 0.02 0.67 0.65 97 1006.7
20260506235559 46 23 1.0 3.0 0.02 0.67 0.65 97 1006.7
20260506235124 46 0.0 0.0 0.02 0.67 0.65 98 1006.8
20260506234155 46 0.0 1.0 0.01 0.66 0.64 98 1006.7
20260506233716 46 0 1.0 3.0 0.01 0.66 0.64 98 1006.9
20260506233017 46 315 2.0 4.0 0.02 0.66 0.64 98 1006.9
20260506232535 46 315 2.0 4.0 0.02 0.66 0.64 98 1006.6
20260506232052 46 315 1.0 4.0 0.02 0.66 0.64 98 1006.6
20260506231612 46 0.0 1.0 0.02 0.66 0.64 98 1006.5
20260506231129 46 0.0 0.0 0.03 0.66 0.64 98 1006.5
20260506230648 46 0.0 2.0 0.02 0.65 0.63 98 1006.6
20260506230228 46 0.0 0.0 0.03 0.65 0.63 98 1006.5
20260506225505 47 0.0 2.0 0.03 0.65 0.63 97 1006.4
20260506225021 47 180 1.0 2.0 0.03 0.65 0.63 98 1006.5
20260506224600 47 0.0 1.0 0.04 0.65 0.63 98 1006.4
20260506224102 47 0.0 1.0 0.04 0.65 0.63 98 1006.4
20260506223620 47 0.0 1.0 0.04 0.65 0.63 98 1006.3
20260506223141 47 0.0 2.0 0.03 0.64 0.62 98 1006.1
20260506222749 47 0.0 2.0 0.04 0.64 0.62 98 1006.1
20260506222218 47 225 1.0 5.0 0.04 0.64 0.62 97 1006.1
20260506221541 47 0.0 2.0 0.04 0.64 0.62 98 1006.1
20260506221033 47 0.0 1.0 0.03 0.63 0.61 97 1006.0
20260506220548 47 0.0 1.0 0.04 0.63 0.61 97 1005.7
20260506220127 47 0.0 2.0 0.03 0.62 0.60 97 1005.8
20260506215652 47 23 1.0 3.0 0.04 0.62 0.60 97 1005.9
20260506215215 47 0 2.0 4.0 0.04 0.62 0.60 96 1005.9
20260506214706 47 0 2.0 4.0 0.03 0.61 0.59 96 1005.8
20260506214008 47 338 4.0 9.0 0.04 0.61 0.59 96 1006.0
20260506213528 47 0 4.0 10.0 0.04 0.61 0.59 95 1005.9
20260506213108 48 0 3.0 9.0 0.04 0.61 0.59 95 1005.9
20260506212559 48 0 4.0 9.0 0.03 0.60 0.58 95 1005.8
20260506212203 49 0 2.0 6.0 0.03 0.61 0.58 95 1005.8
20260506211706 49 23 1.0 4.0 0.03 0.62 0.58 95 1005.7
20260506211154 50 338 3.0 8.0 0.03 0.63 0.58 96 1005.5
20260506210716 50 0 3.0 5.0 0.02 0.62 0.57 96 1005.4
20260506210011 51 293 3.0 5.0 0.02 0.62 0.57 97 1005.6
20260506205531 51 0.0 2.0 0.01 0.62 0.56 98 1005.5
20260506205055 51 0.0 0.0 0.01 0.62 0.56 98 1005.3
20260506204610 51 0.0 2.0 0.01 0.63 0.56 97 1005.3
20260506204126 51 0.0 1.0 0.00 0.63 0.55 97 1005.4
20260506203645 52 0.0 1.0 0.00 0.63 0.55 97 1005.3
20260506203208 52 0.0 2.0 0.00 0.63 0.55 97 1005.1
20260506202509 52 0.0 1.0 0.00 0.63 0.55 97 1005.3
20260506202018 52 0.0 1.0 0.00 0.63 0.55 97 1005.2